STARLINK-35926, 66642

Orbit data source: Space-Track

STARLINK-35926, 66642 is a payload satellite owned by SpaceX/Seattle (US) in LEO that was launched on Sun, 23 Nov 2025 UTC via an FALCON 9 launch vehicle from the Air Force Western Test Range (AFWTR). Payload-class satellites include a variety of spacecraft equipped with specific instruments for various scientific and technological missions. These include communications satellites like Starlink; space stations such as the ISS; scientific satellites like the Hubble; Earth observation satellites from companies like Planet Labs, Umbra, and HawkEye 360; GPS; miniature CubeSats for education and research; and military/defense satellites.

Loading next visibility...
Identifier
66642, 2025-271AB
Orbit
LEO
Country
Flag of USUS
Related business
Manufacturer
SpaceX/Seattle
Mission
Operational Commercial Communications
Bus & Motor
STARLINK V2MO, Unknown motor
Mass
575 kg wet, ~530 kg dry
Launch date (UTC)
2025-11-23 (1 month ago)
Launch vehicle
FALCON 9
Launch site
Air Force Western Test Range (AFWTR)
Object type
Payload
Rocket body
Debris
Shape & HBR
Box + 2 Pan, 17.7 m
Radar Cross Section
36.964 m²

Expand to show TLE details & history
Last TLE update: 2 days ago

TLE from 2 days ago
0 STARLINK-35926
1 66642U 25271AB  25353.74674957 -.00265450  00000-0 -52165-2 0  9993
2 66642  53.1589 153.6296 0001998 136.7356 223.3810 15.47687763  5252
Epoch: 2025-12-19T17:55Z
TLE epoch observation values (Epoch: 2025-12-19T17:55:19.162Z)
Latitude
-0°
Longitude
156.21628°
Altitude
425.386 km
Speed
7.657 km/s
True Right ascension
10h 14m 31s
True Declination
0° 00' 00"
Sunlit
Object was in full shadow at epoch
Visualization orbit readout
Latitude
Unknown
Longitude
Unknown
Altitude
Unknown
Speed
Unknown
Apparent Right ascension
Unknown
Apparent Declination
Unknown
Sunlit
N/A
Visualization observer readout
Local Sidereal Time
15:47:03
Azimuth
Unknown
Elevation
Unknown
Doppler factor
Unknown
Orbital elements
Apogee altitude
425.11 km
Perigee altitude
422.392 km
Semi-major axis
6,801.888 km
Eccentricity
0.0002
Inclination
53.1589°
RAAN
153.6296°
Arg. of periapsis
136.7356°
True anomaly
223.36528°
Mean anomaly
223.381°
Eccentric anomaly
223.37314°
Mean motion
3.869 °/min
Orbital period
93.05 mins
BSTAR
-0.0052165
Loading maneuver chart data...
Computing Atmospheric mass density...
Loading historical data...
Loading historical data...
Loading historical data...
Loading historical data...
Loading historical data...
Loading historical data...
Loading historical data...

Documentation

Showing up to 5 results
|